Regional Weather Roundup
Issued by NWS

Home | Current Version | Previous Version | Graphics & Text | Print | Product List | Glossary On
Versions: 1 2 3 4 5 6 7 8 9 10 11 12 13 14 15 16 17 18 19 20 21 22 23 24 25 26 27 28 29 30 31 32 33 34 35 36 37 38 39 40 41 42 43 44 45 46 47 48 49 50
000
ASUS43 KOAX 040310
RWRNE

WEATHER ROUNDUP FOR NEBRASKA
NATIONAL WEATHER SERVICE OMAHA NE
1000 PM CDT FRI JUL 03 2015

NOTES: SATELLITE DATA IS BEING USED TO AUGMENT CLOUD COVER ABOVE
       12000 FEET.
       "FAIR" INDICATES FEW OR NO CLOUDS BELOW 12,000 FEET WITH NO
       SIGNIFICANT WEATHER AND/OR OBSTRUCTIONS TO VISIBILITY.

  * THESE STATIONS DO NOT REPORT WEATHER SUCH AS RAIN...SNOW OR FOG.

NEZ001>004-019>022-054>056-040400-
NEBRASKA PANHANDLE

CITY           SKY/WX    TMP DP  RH WIND       PRES   REMARKS
SCOTTSBLUFF    CLOUDY    76  58  53 SE10      30.01R
ALLIANCE       PTCLDY    66  58  75 SE7       30.02R
CHADRON        CLEAR     71  61  70 SE7       29.96R
KIMBALL          N/A    N/A N/A N/A MISG        N/A
SIDNEY         PTCLDY    70  57  63 SE8       30.06R
$$

NEZ057>060-069>072-079>082-040400-
SOUTHWEST NEBRASKA

CITY           SKY/WX    TMP DP  RH WIND       PRES   REMARKS
NORTH PLATTE   CLEAR     68  63  84 E6        30.00R
IMPERIAL       CLEAR     70  60  70 SE8       30.02R
LEXINGTON      CLEAR     71  64  80 SE8       30.00R
MCCOOK         CLEAR     71  61  70 SE6       30.00R
OGALLALA       PTCLDY    73  61  67 SE5       30.01R
$$

NEZ005>010-023>029-035>040-094-040400-
NORTH CENTRAL NEBRASKA

CITY           SKY/WX    TMP DP  RH WIND       PRES   REMARKS
VALENTINE      CLEAR     70  60  70 SE7       29.96S
AINSWORTH      CLEAR     69  63  80 E7        29.97S
BROKEN BOW     CLEAR     69  62  78 SE6       29.99R
O`NEILL        CLEAR     71  66  84 SE8       29.98S
ORD            CLEAR     72  61  68 SE8       29.97R
THEDFORD       CLEAR     71  62  72 S3        29.99R
$$

NEZ041-046>049-061>064-073>077-083>087-040400-
SOUTH CENTRAL NEBRASKA

CITY           SKY/WX    TMP DP  RH WIND       PRES   REMARKS
GRAND ISLAND   CLEAR     68  63  84 SE6       30.00R
AURORA         CLEAR     67  65  93 SE3       30.00R
HASTINGS       CLEAR     70  63  78 SE6       30.00R
HEBRON         CLEAR     68  64  87 CALM      29.99R
HOLDREGE       CLEAR     68  62  80 SE6       30.00S
KEARNEY *      CLEAR     68  61  77 SE6       30.00R
YORK           MOCLDY    68  64  88 CALM      30.00R FOG
$$

NEZ011>018-030>034-042>045-040400-
NORTHEAST NEBRASKA

CITY           SKY/WX    TMP DP  RH WIND       PRES   REMARKS
NORFOLK        CLEAR     66  63  90 S6        29.98R
ALBION         CLEAR     67  62  85 SE3       29.99R
BLAIR          CLEAR     69  57  66 SE3       29.97R
COLUMBUS *     CLEAR     64  57  77 CALM      29.96R
FREMONT        CLEAR     70  64  80 CALM      29.98R
TEKAMAH        CLEAR     65  58  78 CALM      29.96R
WAYNE          CLEAR     67  64  91 CALM      29.98R
$$

NEZ050>053-065>068-078-088>093-040400-
SOUTHEAST NEBRASKA

CITY           SKY/WX    TMP DP  RH WIND       PRES   REMARKS
LINCOLN        PTCLDY    69  61  75 CALM      29.98R
OMAHA EPPLEY   PTCLDY    69  58  67 CALM      29.97R
BEATRICE       CLEAR     70  60  71 CALM      29.98R
FALLS CITY     CLEAR     69  61  75 N3        29.96R
NEBRASKA CITY  CLEAR     70  51  51 CALM      29.98R
PLATTSMOUTH    CLEAR     70  55  57 CALM      29.98R
$$

NEZ044-045-051>053-067-040400-
OMAHA AREA

CITY           SKY/WX    TMP DP  RH WIND       PRES   REMARKS
OMAHA EPPLEY   PTCLDY    69  58  67 CALM      29.97R
BLAIR          CLEAR     69  57  66 SE3       29.97R
FREMONT        CLEAR     70  64  80 CALM      29.98R
MILLARD        CLEAR     67  58  73 CALM      29.97R
OFFUTT AFB     CLEAR     62  58  88 CALM      29.96R
PLATTSMOUTH    CLEAR     70  55  57 CALM      29.98R
WAHOO          FAIR      71  63  77 CALM      29.98R
$$


USA.gov is the U.S. government's official web portal to all federal, state and local government web resources and services.